Social login voor leden:

1. METAR EBOS

METAR EBOS 021550Z 27009KT 9999 SCT025 07/04 Q1014 NOSIG

2. TAF EBOS

TAF EBOS 021550Z 27009KT 9999 SCT025 07/04 Q1014 NOSIG

3. NOTAMS EBOS

Klik hier voor een overzicht van de notams.

Deze pagina promoten

Noordzee Vliegclub - Nieuwpoortsesteenweg 947 8400 Oostende - Tel 059 30 04 79 - info@nzvc.be - 

 - Copyright 2020